Location: Rotheul
(50.2849°N, 11.2349°E)
Time: 13:39:48
(UTC+02:00)

ISS - Pass Details

Date: 17 May 2018
Orbit: 402 x 407 km, 51.6° (Epoch: 26 May)

Event Time Altitude Azimuth Distance (km) Brightness Sun altitude
Exits shadow 01:06:20 17° 84° (E) 1,091 -1.6 -20.4°
Drops below altitude 10° 01:07:16 10° 79° (ENE) 1,458 -0.9 -20.4°
Sets 01:09:24 0° 73° (ENE) 2,320 0.2 -20.4°
